Regional Weather Roundup
Issued by NWS

Home | Current Version | Previous Version | Text Only | Print | Product List | Glossary Off
Versions: 1 2 3 4 5 6 7 8 9 10 11 12 13 14 15 16 17 18 19 20 21 22 23 24 25 26 27 28 29 30 31 32 33 34 35 36 37 38 39 40 41 42 43 44 45 46 47 48 49 50

000
ASUS43 KMKX 182120
RWRWI

WISCONSIN REGIONAL WEATHER ROUNDUP
NATIONAL WEATHER SERVICE MILWAUKEE/SULLIVAN WI
300 PM CST WED JAN 18 2017

NOTE: "FAIR" INDICATES FEW OR NO CLOUDS BELOW 12,000 FEET WITH NO
SIGNIFICANT WEATHER AND/OR OBSTRUCTIONS TO VISIBILITY.

WIZ001-002-006>008-014>016-023>028-182200-
NORTHWEST WISCONSIN

CITY           SKY/WX    TMP DP  RH WIND       PRES   REMARKS
SUPERIOR ARPT  SUNNY     42  28  56 SW7       29.80S
ASHLAND        SUNNY     44  28  53 SW12      29.81R
HAYWARD        SUNNY     40  27  59 S12       29.83R WCI  33
SIREN          SUNNY     40  28  61 S8        29.84S
CUMBERLAND     SUNNY     36  30  80 S13       29.84F WCI  27
RICE LAKE      SUNNY     39  30  69 S8        29.86F WCI  34
CHETEK         NOT AVBL
LADYSMITH      SUNNY     40  30  67 S12       29.87S WCI  32
EAU CLAIRE     SUNNY     39  30  70 SW10      29.89R WCI  32
MENOMONIE      SUNNY     38  31  76 MISG      29.89S
NEW RICHMOND   SUNNY     38  30  73 S13       29.86F WCI  30
OSCEOLA        SUNNY     39  32  75 S8        29.88S WCI  33
$$

WIZ003>005-009-010-017-018-182200-
NORTH CENTRAL WISCONSIN

CITY           SKY/WX    TMP DP  RH WIND       PRES   REMARKS
MANITOWISH WTR SUNNY     41  27  56 SW9       29.79S
ARBOR VITAE    SUNNY     44  28  53 W8        29.80S
WOODRUFF       SUNNY     44  28  53 W8        29.80S
RHINELANDER    SUNNY     40  30  67 SW14      29.82F WCI  32
EAGLE RIVER    SUNNY     42  26  53 SW10      29.79S
LAND O LAKES   SUNNY     47  25  42 SW5       29.80R
PHILLIPS       SUNNY     38  29  71 SW15      29.82S WCI  29
TOMAHAWK       SUNNY     38  29  68 SW6       29.84F WCI  34
MEDFORD        SUNNY     36  30  78 SW10      29.86F WCI  29
MERRILL        SUNNY     39  32  75 SW12        N/A  WCI  32
$$

WIZ029-030-035-036-043>047-182200-
CENTRAL WISCONSIN

CITY           SKY/WX    TMP DP  RH WIND       PRES   REMARKS
WAUSAU         SUNNY     39  30  70 SW10      29.87F WCI  32
MOSINEE        SUNNY     37  32  81 SW12      29.89S WCI  30
MARSHFIELD     SUNNY     40  30  67 SW7       29.88S
STEVENS POINT  SUNNY     38  31  73 SW7       29.90S WCI  33
WAUPACA        SUNNY     44  32  63 SW8       29.92F
WAUTOMA        NOT AVBL
WISC RAPIDS    SUNNY     40  31  70 SW9       29.91F WCI  34
CAMP DOUGLAS   MOSUNNY   39  30  70 SW9       29.93S WCI  33
$$

WIZ011>013-019>022-031-037>040-048>050-182200-
NORTHEAST WISCONSIN

CITY           SKY/WX    TMP DP  RH WIND       PRES   REMARKS
ANTIGO         SUNNY     34  33  97 SW10      29.86R WCI  26
SHAWANO        SUNNY     41  32  70 SW8       29.90S
OCONTO         SUNNY     37  31  78 SW10G16   29.89S WCI  30
STURGEON BAY   SUNNY     37  31  78 SW15      29.89S WCI  28
GREEN BAY      SUNNY     37  33  85 SW10      29.91F WCI  30
MANITOWOC      SUNNY     40  31  70 SW14      29.95R WCI  32
APPLETON       MOSUNNY   36  34  93 SW16      29.91F WCI  26
CLINTONVILLE   SUNNY     39  32  75 SW8       29.90S WCI  34
OSHKOSH        SUNNY     35  30  82 S13G22    29.94F WCI  26
$$

WIZ032>034-041-042-053>061-182200-
SOUTHWEST WISCONSIN

CITY           SKY/WX    TMP DP  RH WIND       PRES   REMARKS
LA CROSSE      SUNNY     38  31  76 S6        29.95S WCI  33
SPARTA         SUNNY     39  31  74 SW3       29.95S
VIROQUA        MOSUNNY   33  32  94 S9        29.94S WCI  26
BOSCOBEL       CLOUDY    36  31  82 S7        30.01S WCI  30
PRAIRIE DU CHI CLOUDY    35  30  82 CALM      30.01R HAZE
PLATTEVILLE    CLOUDY    35  34  95 S9        30.01R WCI  28
$$

WIZ056-057-062-063-064-067-068-182200-
SOUTH CENTRAL WISCONSIN

CITY           SKY/WX    TMP DP  RH WIND       PRES   REMARKS
REEDSBURG      SUNNY     35  32  87 S6        29.95F WCI  30
BARABOO/DELLS  SUNNY     37  30  78 W6        29.95S WCI  32
LONE ROCK      CLOUDY    35  30  82 SW9       30.00F WCI  28
MINERAL POINT  CLOUDY    34  34 100 SW8       30.00R FOG     WCI  27
MADISON        MOSUNNY   35  30  82 S10       30.00F WCI  27
MIDDLETON      SUNNY     37  32  81 SW8       30.00S WCI  31
WATERTOWN      CLOUDY    33  33  99 S13       29.98F WCI  24
MONROE         CLOUDY    32  32 100 SW8       30.00S FOG     WCI  25
JANESVILLE     PTSUNNY   36  34  93 SW9       30.02F WCI  29
$$

WIZ051-052-058>065-066-070>072-182200-
SOUTHEAST WISCONSIN

CITY           SKY/WX    TMP DP  RH WIND       PRES   REMARKS
MILWAUKEE      CLOUDY    36  31  82 W12G21    30.02F WCI  28
WAUKESHA       CLOUDY    32  30  93 W12       30.03R WCI  23
MILWAUKEE/TIMM CLOUDY    36  30  80 W17       30.03S WCI  25
RACINE         CLOUDY    35  30  82 W6        30.05R WCI  30
KENOSHA        CLOUDY    35  32  88 W14       30.04R FOG     WCI  26
FOND DU LAC    SUNNY     36  29  75 S16       29.95F WCI  26
SHEBOYGAN      SUNNY     37  31  78 SW16      29.96F WCI  28
WEST BEND      CLOUDY    34  32  93 SW15G22   29.98F WCI  24
JUNEAU         CLOUDY    33  31  92 S14       29.99F WCI  23
$$

LSZ147-162-182200-
LAKE SUPERIOR

STATION/POSITION TIME  TEMP    WIND        PRES    WAVE
                       AIR SEA DIR/SP/G            HT/PER
                 (UTC) (F)     (DEG/KT/KT) (MB)    (FT/S)
DEVILS ISLAND    2100   35     220/ 12/ 14 1009.2R
PORT WING        2040   38     260/  7/ 10 1009.5R
SAXON HARBOR     2030   48     200/  7/ 12 1008.8R
$$

LMZ867-665-643>646-182200-
LAKE MICHIGAN

STATION/POSITION TIME  TEMP    WIND        PRES    WAVE
                       AIR SEA DIR/SP/G            HT/PER
                 (UTC) (F)     (DEG/KT/KT) (MB)    (FT/S)
NORTHPORT PIER   2040   41      CALM  / 11 1011.2S
SISTER BAY       1935   43     220/ 11/ 13   N/A
KEWAUNEE LAKESHO 2054   38     220/ 11/ 14 1012.7F
SHEBOYGAN LAKESH 2100   39     220/ 16/ 18 1014.8F
PORT WASHINGTON  2040   38     250/ 11/ 16 1016.6F
MILWAUKEE LAKESH 2100   36     230/ 12/ 14   N/A
KENOSHA   LAKESH 2100   36     260/ 12/ 14 1017.6
$$

TC  - TEMPERATURE IN CELSIUS
VSB - VISIBILITY IN STATUTE MILES
WCI - WIND CHILL INDEX
HX  - HEAT INDEX




USA.gov is the U.S. government's official web portal to all federal, state and local government web resources and services.